Regional Weather Roundup
Issued by NWS Grand Forks, ND

Home | Current Version | Previous Version | Graphics & Text | Print | Product List | Glossary On
Versions: 1 2 3 4 5 6 7 8 9 10 11 12 13 14 15 16 17 18 19 20 21 22 23 24 25 26 27 28 29 30 31 32 33 34 35 36 37 38 39 40 41 42 43 44 45 46 47 48 49 50
000
ASUS43 KFGF 240531
RWRFGF
PRAIRIE TO PINES  WEATHER ROUNDUP
NATIONAL WEATHER SERVICE EASTERN NORTH DAKOTA/GRAND FORKS ND
1200 AM CDT SUN MAY 24 2015

 **SATELLITE DATA USED TO AUGMENT SKY COVER AT AUTOMATED STATIONS**
 *****  WEATHER ACROSS EASTERN NORTH DAKOTA  *****

CITY           SKY/WX    TMP DP  RH WIND       PRES   REMARKS
GRAND FORKS    PTCLDY    55  46  71 S6        30.09F
GRAND FRKS AFB PTCLDY    55  45  68 SW3       30.10S
GRAND FRKS NWS   N/A     55 N/A N/A SW2         N/A
DEVILS LAKE    PTCLDY    57  48  72 CALM      30.10S
FARGO          PTCLDY    56  48  74 E6        30.10F
WAHPETON ARPT  CLOUDY    59  45  58 E5        30.11S
$$

 ***** WEATHER ACROSS CENTRAL AND WESTERN NORTH DAKOTA  *****

CITY           SKY/WX    TMP DP  RH WIND       PRES   REMARKS
BISMARCK       CLOUDY    55  50  83 E6        30.11S
MINOT          CLOUDY    58  46  64 SW5       30.09S
JAMESTOWN      MOCLDY    56  51  84 CALM      30.10F
MINOT AFB      CLOUDY    58  47  66 SW3       30.08S
GARRISON         N/A     58  47  66 CALM      30.10S
WILLISTON      PTCLDY    49  42  77 CALM      30.09S
DICKINSON      MOCLDY    51  45  79 SE6       30.09S
HETTINGER      CLOUDY    53  48  83 E7        30.10S
$$

 *****  OTHER AIRPORT OBSERVATIONS IN OUR AREA  *****

CITY           SKY/WX    TMP DP  RH WIND       PRES   REMARKS
WALHALLA         N/A     61  45  55 SW5       30.08S
GRAFTON AIRPOR FAIR      57  48  72 SW8       30.10S
VALLEY CITY AR FAIR      55  48  76 CALM      30.10F
CANDO          FAIR      55  46  71 S3        30.11S
CAVALIER APRT  FAIR      61  46  59 SW7       30.08S
GWINNER        NOT AVBL
SHEYENNE NWR     N/A     55  48  77 E6        29.95S
ROLLA          MOCLDY    57  45  62 SW10      30.11S
 ***** THE ABOVE OBSERVATIONS ARE NON NWS ARE NOT QUALITY
       CONTROLLED AND MAY MIS-REPORT RAIN FOR SNOW...
$$

  *****  WEATHER ACROSS NORTHERN MINNESOTA  *****

CITY           SKY/WX    TMP DP  RH WIND       PRES   REMARKS
FLAG ISLAND    CLEAR     63  41  45 SW15      30.06S
WARROAD        PTCLDY    61  46  59 SW6       30.10S
ROSEAU         PTCLDY    59  46  63 SW6       30.10S
HALLOCK        PTCLDY    57  46  67 SW7       30.09S
THF RVR FALLS  PTCLDY    57  43  58 S6        30.12S
BAUDETTE       CLEAR     55  43  63 W5        30.10R
WASKISH        CLEAR     59  46  63 CALM      30.13S
CROOKSTON      PTCLDY    57  45  62 S6        30.11S
STEPHEN NDAWN    N/A     59  46  63 SW6         N/A
GREENBUSH NDAW   N/A     57  48  72 SW5         N/A
$$
  *****  WEATHER ACROSS CENTRAL AND WEST MINNESOTA  *****

CITY           SKY/WX    TMP DP  RH WIND       PRES   REMARKS
FOSSTON        MOCLDY    54  45  71 S5        30.13F
BEMIDJI        PTCLDY    56  44  62 SW3       30.14S
PARK RAPIDS    PTCLDY    54  45  71 CALM      30.13F
ELBOW LAKE     CLOUDY    62  48  61 E9        30.11F
WADENA         CLOUDY    57  46  67 CALM      30.13F
DETROIT LAKES  MOCLDY    55  46  71 CALM      30.14S
MOORHEAD       PTCLDY    57  46  67 E3        30.11F
FERGUS FALLS   CLOUDY    61  48  63 E5        30.12F
MORRIS MN      CLOUDY    63  46  55 E12       30.09F
STAPLES        CLOUDY    59  46  63 CALM      30.13F
$$
  *****  WEATHER ELSEWHERE ACROSS MINNESOTA  *****

CITY           SKY/WX    TMP DP  RH WIND       PRES   REMARKS
DULUTH         CLEAR     58  42  55 W7        30.16S
INTRNTL FALLS  CLEAR     54  39  57 SW5       30.10R
ELY            CLEAR     57  43  58 SW5       30.15R
CLOQUET        CLEAR     52  43  71 CALM      30.16S
WHEATON        CLOUDY    61  46  59 E7        30.11F
BRAINERD       CLOUDY    57  50  77 CALM      30.16S
HIBBING        CLEAR     46  41  82 CALM      30.15R
ALEXANDRIA     CLOUDY    61  46  57 E9        30.14F
SAINT CLOUD    CLOUDY    60  48  64 CALM      30.14F
MINNEAPOLIS    CLOUDY    63  46  54 E5        30.14S
$$

  *****  WEATHER ACROSS SOUTH DAKOTA  *****

CITY           SKY/WX    TMP DP  RH WIND       PRES   REMARKS
SIOUX FALLS    CLOUDY    61  55  81 S3        30.07S
BROOKINGS      CLOUDY    59  52  77 SE5       30.07F
WATERTOWN      MOCLDY    58  47  66 E8        30.08F
HURON          MOCLDY    56  53  90 N5        30.05F
SISSETON         N/A     59  49  69 SE6       30.08F
ABERDEEN       MOCLDY    56  49  77 E5        30.08F
MITCHELL       CLOUDY    58  55  90 E6        30.05F
PIERRE         CLOUDY    55  53  93 E7        30.02F
MOBRIDGE       CLOUDY    58  53  84 NE5       30.06F
RAPID CITY     LGT RAIN  53  52  96 E9        30.03S FOG
$$

  *****  SOME WEATHER IN NEARBY STATES *****

CITY           SKY/WX    TMP DP  RH WIND       PRES   REMARKS
GLASGOW MT     CLEAR     56  42  59 SE3       30.10R
GREAT FALLS MT CLOUDY    52  50  93 CALM      30.12R
CHEYENNE WY    CLOUDY    46  43  89 S5        29.96F
SCOTTSBLUFF NE CLOUDY    54  53  97 E12       29.92S
OMAHA NE       CLOUDY    63  61  93 VRB5      30.02R
DES MOINES IA  CLOUDY    68  53  58 SE9       30.07F
DAVENPORT IA   CLOUDY    63  47  55 SE7       30.14F
CHICAGO IL     PTCLDY    63  45  51 S6        30.20S
EAU CLAIRE WI  MOCLDY    59  46  62 NE5       30.15S
LA CROSSE WI   PTCLDY    61  50  67 SE5       30.14S
$$

  *****  SOME NATIONAL WEATHER *****

CITY           SKY/WX    TMP DP  RH WIND       PRES   REMARKS
LA GUARDIA NY  CLEAR     59  44  57 S7        30.35S
RALEIGH NC     PTCLDY    63  51  65 SE6       30.38F
ATLANTA GA     PTCLDY    69  48  47 E6        30.30S
NEW ORLEANS LA MOCLDY    76  70  82 S6        30.11S
OKLAHOMA CITY  LGT RAIN  61  60  97 S8        29.99F
ALBUQUERQUE NM PTCLDY    62  26  25 N12       29.98R
SALT LAKE CITY PTCLDY    52  45  77 SW5       29.96R
LOS ANGELES CA PTCLDY    58  52  80 W8        30.05R
BOISE ID       PTCLDY    64  50  59 S15G31    29.89R
SEATTLE WA     CLOUDY    58  51  78 SW5       30.18R
$$

*** WEATHER ACROSS MANITOBA...SASKATCHEWAN AND ONTARIO ***
                ***ONTARIO***

CITY           SKY/WX    TMP DP  RH WIND       PRES   REMARKS
GERALDTON      CLEAR     54  45  71 NE8       30.05R
THUNDER BAY    CLEAR     50  43  76 SW3       30.06S
SIOUX LOOKOUT  PTCLDY    50  43  76 CALM      30.05R
TORONTO        CLEAR     57  27  30 SW8       30.25F
BIG TROUT LK   CLEAR     30  28  93 NW5       30.07F
PICKLE LAKE    NOT AVBL
DRYDEN         CLEAR     59  39  47 SW8       30.05S
KENORA         CLEAR     63  37  39 SW9       30.06F
$$
                *** MANITOBA***

CITY           SKY/WX    TMP DP  RH WIND       PRES   REMARKS
BRANDON        PTCLDY    52  39  62 N8        30.06S
DAUPHIN        CLEAR     55  46  71 NE5       30.09S
ISLAND LAKE    CLEAR     41  36  81 CALM      30.11S
PILOT MOUND      N/A     57  45  62 SW12        N/A
THE PAS        PTCLDY    46  36  66 E3        30.11F
THOMPSON       PTCLDY    39  30  70 CALM      30.08F
WINNIPEG       CLEAR     64  37  36 S9        30.05S
LYNN LAKE      CLEAR     46  28  49 W6        30.09F
CHURCHILL      LGT RAIN  41  36  81 N10       29.87R
GILLAM         CLEAR     46  28  49 SW12      30.00F
$$
                ***SASKATCHEWAN***

CITY           SKY/WX    TMP DP  RH WIND       PRES   REMARKS
ESTEVAN        MOCLDY    54  41  62 W6        30.09R
KINDERSLEY     MOCLDY    63  30  29 S9        30.09S
LLOYDMINSTER   CLEAR     57  39  51 E8        30.08F
PRINCE ALBERT  PTCLDY    57  45  62 NE7       30.08R
REGINA         CLEAR     55  36  47 SW3       30.09S
YORKTON        MOCLDY    61  45  55 SE7       30.07F
N. BATTLEFORD  MOCLDY    63  34  34 E8        30.08S
LA RONGE       PTCLDY    43  32  65 CALM      30.12S
SASKATOON      PTCLDY    63  36  36 CALM      30.08R
SWIFT CURRENT  CLEAR     54  30  40 S7        30.10F
$$
NOTE: THESE ARE AUTOMATED STATIONS WITH LIMITED QUALITY CONTROL
      "FAIR" INDICATES FEW OR NO CLOUDS BELOW 12,000 FEET WITH NO
      SIGNIFICANT WEATHER AND/OR OBSTRUCTIONS TO VISIBILITY.
      SKY/WX - SKY CONDITION AND SIGNIFICANT WEATHER.
      TMP - AIR TEMPERATURE.    DP   - DEWPOINT TEMPERATURE.
      RH  - RELATIVE HUMIDITY.  PRES - PRESSURE.
      HX  - HEAT INDEX.         WCI  - WIND CHILL INDEX.
$



USA.gov is the U.S. government's official web portal to all federal, state and local government web resources and services.